Temperature
19 19 19 18 18 18 19 20 20 21 21 22 22 21 20 19 19 19 18 18 19 19 18 18 19 19 19 19 19 19 19 19 19 19 19 19 19 19 19 19 19 19 19 19 19 19 19 19 19
19 19 19 18 18 19 20 20 20 21 22 22 22 21 20 19 19 18 18 18 18 18 18 18 18 18 18 18 18 18 18 18 18 18 18 18 18 19 19 19 19 19 19 19 19 19 19 19 19
19 19 19 17 19 19 20 20 21 22 23 23 21 21 20 19 19 18 18 18 18 18 18 18 18 18 18 18 18 18 18 18 18 18 18 18 18 18 18 18 18 18 18 18 18 18 18 18 19
19 19 18 18 20 20 20 20 21 22 23 22 21 20 19 19 19 19 18 18 19 18 18 18 18 18 18 18 18 18 18 18 18 18 18 18 18 18 18 18 18 18 18 18 18 18 18 18 18
19 19 18 19 20 20 20 21 21 22 22 22 21 19 19 19 19 19 19 19 19 18 18 18 18 18 18 18 17 17 17 17 17 17 17 17 17 17 17 17 17 17 17 17 18 18 18 18 18
19 18 19 19 20 20 20 21 22 22 22 21 20 19 19 19 19 19 19 19 19 18 18 18 18 18 17 17 17 17 17 17 17 17 17 17 17 17 17 17 17 17 17 17 17 17 17 17 17
19 18 19 20 20 20 21 22 22 22 22 22 21 19 18 19 19 19 19 19 19 18 18 18 18 17 17 17 17 17 16 16 16 16 16 16 16 16 16 16 16 17 17 17 17 17 17 17 17
20 18 19 19 20 20 21 22 22 23 23 22 22 19 19 19 19 19 19 19 19 18 18 18 18 17 17 17 17 16 16 16 16 16 16 15 16 16 16 16 16 16 16 16 16 16 17 17 17
20 18 18 19 19 20 21 22 22 23 23 22 22 21 21 20 19 19 19 19 18 18 18 18 18 17 17 17 16 16 16 16 15 15 15 15 15 15 15 15 15 16 16 16 16 16 16 16 17
19 18 19 19 19 19 21 22 22 22 22 21 21 21 20 20 19 19 19 19 19 18 18 18 18 17 17 17 16 16 16 16 15 15 15 15 15 15 15 15 15 15 15 15 16 16 16 16 16
19 18 19 20 20 21 21 22 23 22 21 21 21 21 20 20 20 20 19 19 19 19 18 18 18 17 17 17 16 16 16 16 15 15 15 15 15 15 15 15 15 15 15 15 15 15 15 16 16
19 20 20 20 21 22 22 22 22 22 23 23 23 22 21 20 20 20 20 19 19 19 19 18 18 17 17 17 16 16 16 16 15 15 15 15 15 15 15 15 15 15 15 15 15 15 15 15 16
19 20 21 22 22 22 22 22 22 23 23 23 22 21 21 21 21 20 20 20 20 19 19 18 18 17 17 17 16 16 16 16 15 15 15 15 15 15 14 14 15 15 15 15 15 15 15 15 15
20 20 21 21 22 22 22 22 22 22 23 22 22 22 21 21 21 21 20 20 20 20 19 19 18 18 17 17 16 16 16 15 15 15 15 14 14 14 14 14 14 14 14 14 15 15 15 15 15
20 19 20 21 21 22 22 22 22 23 23 22 22 22 22 22 21 21 21 21 20 20 19 19 18 18 17 17 16 16 15 15 15 15 14 14 14 14 14 14 14 14 14 14 14 14 15 15 15
19 19 19 20 21 22 22 21 21 23 23 22 22 22 22 22 22 22 21 21 21 20 19 19 18 18 17 17 16 16 15 15 15 14 14 14 14 14 14 14 14 14 14 14 14 14 14 15 15
18 19 19 20 21 22 21 21 22 23 23 22 22 22 22 22 22 22 22 21 21 20 20 19 18 18 17 16 16 15 15 15 14 14 14 14 14 14 13 13 13 14 14 14 14 14 14 14 15
19 19 19 20 21 21 21 21 21 23 23 22 23 23 23 22 22 22 22 21 21 20 20 19 18 18 17 16 16 15 15 15 14 14 14 14 14 13 13 13 13 13 13 13 14 14 14 14 15
20 20 20 20 21 21 21 21 21 22 22 22 22 22 23 23 23 22 22 21 21 20 20 19 18 18 17 16 16 15 15 14 14 14 14 14 13 13 13 13 13 13 13 13 13 14 14 14 15
20 20 20 21 22 22 21 21 21 21 22 23 23 23 23 23 22 22 22 21 21 20 20 19 18 18 17 16 16 15 15 14 14 14 14 13 13 13 13 13 13 13 13 13 13 13 14 14 14
20 20 21 21 22 22 21 20 21 21 22 23 24 24 23 23 22 22 21 21 21 20 20 19 19 18 17 16 16 15 15 14 14 14 14 13 13 13 13 13 13 13 13 13 13 13 13 14 14
20 21 22 22 21 19 21 19 20 20 21 22 23 23 23 23 23 22 22 21 21 21 20 19 19 18 17 17 16 15 15 14 14 14 14 13 13 13 13 13 13 13 13 13 13 13 13 13 14
21 22 22 22 21 19 20 20 19 20 22 22 22 23 24 24 23 23 22 22 21 21 20 19 19 18 17 17 16 15 15 14 14 14 14 13 13 13 13 13 13 13 13 13 13 13 13 13 13
23 21 20 18 18 19 20 20 20 19 22 22 22 23 24 24 23 23 22 22 21 20 20 19 19 18 17 17 16 15 15 14 14 14 14 14 13 13 13 13 13 13 13 13 13 13 13 13 13
21 19 18 18 17 18 19 20 20 21 22 23 23 24 24 24 23 23 22 21 21 20 20 19 19 18 17 17 16 15 15 15 14 14 14 14 13 13 13 13 13 13 13 13 13 13 13 13 13
21 19 18 19 18 18 19 20 20 22 23 24 25 25 24 24 24 23 23 22 21 21 20 19 19 18 18 17 16 16 15 15 14 14 14 14 14 13 13 13 13 13 13 13 13 13 13 13 13
22 20 19 18 19 18 19 21 22 23 23 23 24 24 24 24 24 23 23 22 22 21 20 20 19 18 18 17 16 16 15 15 14 14 14 14 14 14 13 13 13 13 13 13 13 13 13 13 13
23 21 18 18 19 18 19 20 20 22 22 22 22 23 24 24 24 23 23 22 22 21 21 20 19 19 18 17 16 16 15 15 15 14 14 14 14 14 14 13 13 13 13 13 13 13 13 13 13
23 22 19 16 17 18 18 19 20 21 21 21 22 24 24 24 24 24 23 23 22 21 21 20 19 19 18 17 17 16 15 15 15 14 14 14 14 14 14 14 13 13 13 13 13 13 13 13 13
22 22 19 19 19 17 17 18 21 20 21 22 23 25 25 25 24 24 23 23 22 21 21 20 19 19 18 18 17 16 16 15 15 15 14 14 14 14 14 14 14 13 13 13 13 13 13 13 13
Wind_Speed
10 8 4 3 2 2 1 2 2 2 0 1 5 8 7 5 4 5 2 8 12 10 9 11 11 10 9 8 7 7 6 6 6 5 5 5 5 4 4 4 4 4 4 3 3 3 3 3 3
7 4 2 2 2 1 2 3 3 3 3 4 6 6 7 6 5 6 4 10 12 10 10 10 11 10 9 8 7 6 6 5 5 4 4 4 3 3 2 1 2 2 2 2 2 2 2 1 1
6 3 2 2 1 2 2 3 4 2 1 2 4 5 5 5 5 4 8 12 11 9 10 11 11 10 9 8 7 6 5 4 4 3 2 2 1 0 0 1 1 1 1 1 1 1 1 1 1
4 2 2 2 2 3 3 4 3 0 2 3 5 5 4 3 5 8 12 13 11 9 10 11 12 11 9 8 7 5 4 3 2 1 0 1 1 2 2 3 3 3 2 2 2 1 1 2 2
2 3 2 0 2 2 2 3 3 2 2 4 7 6 4 3 8 13 13 12 11 8 8 10 11 10 9 7 6 5 3 2 1 1 2 2 3 4 5 5 5 5 5 4 4 3 2 2 3
2 2 2 2 2 1 1 1 2 2 4 6 8 6 3 4 8 11 12 10 10 9 8 9 11 10 9 7 6 4 3 1 0 1 3 3 4 5 6 6 6 6 6 6 5 5 4 4 4
3 3 2 2 1 1 2 2 3 3 5 6 8 6 5 5 7 10 11 10 9 8 7 7 8 9 8 7 6 5 3 2 1 2 4 5 6 6 7 7 7 7 7 7 7 7 7 7 7
3 3 1 0 1 2 2 1 3 4 4 6 7 9 7 8 9 9 9 9 8 7 7 6 7 7 7 7 6 5 4 3 2 4 5 6 6 7 8 8 8 8 8 8 8 8 8 8 8
3 4 1 1 1 2 2 1 1 1 4 3 3 6 9 13 10 9 6 5 5 7 6 6 5 6 7 7 6 4 3 3 3 4 6 6 6 7 7 8 8 9 8 9 8 8 8 9 9
3 3 3 3 3 3 3 3 3 2 5 4 5 7 12 12 11 9 8 7 7 7 6 6 6 5 5 5 4 3 2 2 2 3 3 3 4 5 4 5 7 8 8 9 9 8 8 7 5
4 5 4 2 4 4 3 3 2 6 4 7 12 14 14 11 10 10 9 8 8 7 7 5 5 4 4 2 2 2 1 1 1 1 1 2 3 4 4 4 5 5 6 5 6 6 4 3 3
3 4 5 4 6 4 3 2 1 5 8 11 16 18 15 12 12 12 11 9 8 7 7 6 6 5 3 3 1 2 1 0 0 1 1 2 1 2 2 2 3 3 3 3 3 2 3 3 4
3 2 4 5 6 5 3 3 2 3 6 11 14 15 14 14 12 11 11 10 9 8 7 7 7 6 4 3 1 2 1 1 1 2 3 3 1 2 2 2 3 3 3 2 2 2 2 3 2
3 2 3 4 4 3 4 3 2 5 8 13 14 14 14 14 13 10 10 10 9 9 8 7 8 7 6 4 3 2 1 2 3 3 4 5 4 2 3 3 3 3 3 3 2 2 2 2 2
2 2 4 4 4 3 3 2 5 7 10 14 14 14 13 12 12 12 12 12 11 10 9 8 8 7 7 5 4 3 2 4 3 3 5 6 6 4 3 3 3 3 4 4 3 2 2 2 2
3 2 2 4 2 2 5 5 8 6 11 12 12 12 12 12 12 12 13 12 12 11 9 8 9 8 6 5 4 2 3 3 3 3 5 6 6 5 3 3 3 3 4 3 2 2 2 2 2
3 1 2 4 3 2 4 6 8 6 10 12 12 12 12 10 10 11 12 13 13 12 10 8 9 8 6 5 4 3 3 3 3 3 3 4 5 5 3 2 3 3 3 3 3 2 1 2 3
3 2 2 3 3 3 5 8 8 7 10 12 11 11 11 12 12 11 12 12 12 11 10 9 8 8 6 4 4 3 3 2 1 2 2 3 3 4 3 2 3 3 3 3 3 2 2 1 2
3 2 2 4 4 3 7 9 10 9 9 10 10 11 13 13 10 10 11 11 11 10 10 9 9 7 5 3 3 2 1 0 0 0 1 2 2 3 3 2 3 3 3 3 3 2 2 2 2
2 1 2 5 4 3 5 9 10 9 11 12 12 13 14 11 8 10 10 11 12 11 11 10 10 8 6 4 3 3 2 1 1 1 0 0 0 1 2 2 2 3 2 4 4 3 2 2 2
2 4 4 4 4 4 3 8 7 6 6 7 9 10 12 14 15 13 12 11 11 12 12 11 10 9 7 6 4 3 3 3 2 1 1 2 1 0 1 2 2 2 2 2 2 2 2 2 2
3 6 5 2 2 4 1 3 9 5 2 6 7 7 10 12 12 13 13 13 13 12 11 11 10 9 8 7 6 5 3 2 3 2 2 2 2 1 1 1 2 2 2 2 2 2 1 1 1
6 4 2 1 0 3 3 1 8 4 2 6 7 8 10 11 14 15 15 14 12 11 11 11 10 9 8 7 7 6 4 3 2 1 1 1 2 2 1 1 1 2 1 1 3 2 2 1 1
1 4 6 5 4 3 4 2 6 4 6 5 6 7 8 10 12 12 12 10 9 10 10 10 10 9 8 8 7 7 6 4 3 2 1 1 2 2 2 1 0 0 0 1 2 2 2 2 2
5 6 5 6 5 5 4 1 7 7 5 6 7 7 8 9 11 11 11 11 11 12 12 11 11 9 8 8 7 7 7 6 6 4 3 2 2 2 3 2 1 1 1 1 1 2 2 2 2
3 8 6 2 3 5 6 2 6 6 3 3 4 5 6 9 10 12 14 14 13 13 13 12 12 10 9 9 8 6 6 5 4 5 4 4 4 4 4 3 2 2 2 0 1 1 1 1 2
3 3 6 6 0 2 5 5 6 4 3 1 2 3 6 8 10 11 12 13 13 14 14 14 13 10 10 9 8 7 7 6 6 5 4 3 4 4 4 3 2 2 2 1 1 1 1 1 1
5 6 5 4 1 2 6 4 4 6 6 5 5 6 8 7 9 10 11 13 13 14 12 12 12 12 10 10 9 7 7 7 6 5 5 4 4 4 3 3 2 2 2 1 1 0 0 1 1
1 2 5 4 5 4 2 7 6 7 7 7 8 8 9 9 10 10 11 12 12 11 11 11 11 10 10 10 8 8 7 7 6 6 6 5 4 4 4 4 3 3 3 2 1 1 1 1 0
5 5 6 3 2 4 3 7 8 6 6 6 8 8 7 8 8 9 10 9 10 11 11 12 12 11 11 10 9 9 8 7 7 7 6 5 5 4 4 4 3 3 3 3 3 2 2 2 1
Wind_Direction
160 139 103 83 82 68 253 230 203 235 218 50 78 86 86 65 82 127 188 139 133 137 137 134 131 129 128 126 123 121 120 119 118 117 116 114 112 108 106 105 105 100 98 97 96 93 84 77 70
141 127 86 80 101 115 248 218 207 206 163 125 86 83 81 80 89 109 117 132 132 133 132 131 130 127 125 124 120 118 118 118 117 114 111 110 111 117 117 117 115 110 109 110 113 108 106 92 69
146 139 120 102 154 195 215 226 229 253 231 121 78 51 74 103 113 124 140 136 130 132 134 135 132 130 128 126 124 122 117 117 120 119 116 117 126 153 220 261 259 230 174 155 149 157 197 216 244
135 95 74 86 219 225 199 213 228 211 53 95 111 69 51 73 126 134 138 137 135 138 141 142 138 135 134 132 129 126 123 119 119 113 85 285 280 284 282 275 273 264 249 244 238 230 235 244 255
95 100 78 239 243 240 221 212 192 183 129 105 104 92 68 52 113 130 139 141 141 147 150 149 144 142 139 136 133 129 126 117 108 313 303 296 292 293 290 283 277 269 259 254 249 239 247 256 259
90 93 107 202 223 276 265 197 124 118 120 113 106 105 126 139 126 138 142 146 147 150 154 155 154 153 149 146 144 144 145 144 228 305 308 309 302 298 296 288 281 277 269 262 256 251 250 255 260
132 120 163 196 200 225 214 204 153 151 132 138 127 111 142 168 150 145 145 147 150 151 152 160 163 162 163 164 166 166 171 195 265 302 308 306 304 299 293 284 281 278 276 274 267 260 256 255 256
146 106 55 359 170 230 231 190 171 153 128 127 126 139 165 185 160 141 141 146 151 157 162 169 174 174 175 182 187 185 196 222 262 294 300 299 304 303 294 282 276 275 277 278 275 269 263 260 260
100 78 86 211 181 257 249 172 220 88 101 81 110 154 164 161 149 134 132 137 150 161 173 175 175 181 185 194 202 194 207 237 265 293 300 302 307 308 299 282 273 274 281 284 281 276 271 265 263
112 133 210 202 173 205 235 205 178 100 95 83 85 114 143 152 152 155 160 167 168 172 178 177 174 173 182 190 188 200 215 238 273 294 304 311 319 320 323 298 288 285 289 290 286 284 283 275 256
162 174 200 198 186 206 237 246 189 137 151 168 157 155 160 162 164 171 177 178 182 178 166 161 154 155 164 161 167 190 210 245 290 303 309 349 356 350 357 346 324 316 313 309 299 301 296 275 247
184 201 182 197 200 193 216 232 180 176 195 176 166 163 167 172 178 183 184 182 177 165 159 149 141 142 150 144 145 143 146 240 340 327 41 49 24 359 346 344 333 330 320 309 298 293 291 278 258
207 229 214 225 217 211 193 212 200 206 178 162 160 164 173 181 187 189 182 175 167 158 152 145 138 137 133 110 92 109 123 110 92 50 42 54 42 4 345 341 353 344 333 313 301 302 298 292 275
220 239 272 257 245 231 197 235 188 218 164 158 166 176 184 186 185 180 171 169 170 162 153 145 137 135 124 110 99 96 106 93 78 58 48 53 47 24 11 7 359 346 344 333 309 299 291 287 277
1 7 320 272 238 227 166 272 224 207 164 166 178 185 189 191 182 177 174 171 170 164 157 152 141 131 121 110 96 99 94 98 84 70 60 57 54 42 28 18 360 340 351 360 358 336 332 323 309
36 30 319 291 235 201 148 242 249 209 174 180 189 192 193 196 187 181 173 168 165 160 157 156 142 132 126 118 104 94 92 98 95 85 67 57 55 48 35 20 351 345 1 359 352 347 345 330 313
38 29 261 293 264 197 170 232 248 209 187 195 199 199 196 197 191 180 172 166 164 162 155 146 138 138 134 123 103 92 91 99 110 95 72 55 47 43 39 16 342 356 6 3 350 359 342 319 313
177 190 247 257 269 200 219 244 251 218 199 207 207 203 200 196 195 179 170 164 160 158 151 145 140 141 132 107 88 73 69 70 89 99 94 69 49 39 38 11 351 4 13 0 353 336 330 301 303
163 166 217 253 255 217 240 254 255 232 217 217 216 206 204 203 193 172 165 157 153 153 150 149 145 148 136 117 114 111 123 183 24 241 138 94 62 40 38 15 3 10 14 352 350 349 344 335 350
158 175 259 272 257 226 259 269 261 234 221 216 210 207 202 197 181 173 166 160 161 162 159 154 154 156 154 147 151 160 164 191 219 269 303 158 70 23 38 28 10 6 13 7 8 18 11 350 20
216 213 228 247 329 340 335 314 299 274 226 218 210 204 194 188 184 179 172 171 166 166 166 163 162 159 157 145 122 90 65 42 27 346 300 287 258 252 36 23 24 15 28 9 360 13 40 7 353
232 236 224 241 18 306 53 300 300 299 229 210 208 193 192 187 182 178 175 175 176 175 168 159 159 158 158 148 138 138 144 174 223 227 249 274 255 259 323 21 31 25 20 5 347 34 37 69 14
214 228 238 285 110 334 342 176 294 315 222 230 221 203 194 185 181 182 182 181 177 169 164 160 157 159 162 156 151 150 161 192 223 232 251 277 287 282 285 337 47 39 22 7 10 18 28 55 83
166 41 25 40 62 342 264 182 279 259 229 227 228 213 201 189 186 184 180 169 165 162 160 159 158 165 167 162 161 166 174 184 193 213 220 257 271 290 288 278 28 18 349 349 3 11 35 46 63
80 75 28 9 9 272 284 193 259 268 241 197 197 207 199 184 179 175 171 172 170 168 168 167 164 171 177 172 175 181 186 186 194 204 205 201 215 243 256 255 255 255 272 313 32 41 36 53 70
163 133 146 177 251 292 342 327 277 284 254 187 173 180 175 181 184 184 183 181 179 177 174 172 174 177 181 182 188 190 189 186 200 207 199 198 206 219 226 231 241 249 258 358 61 57 36 74 75
130 160 170 143 199 333 321 317 322 326 316 266 193 178 191 194 192 192 190 186 183 182 182 180 179 181 186 188 188 193 193 192 201 207 199 198 210 220 218 222 233 246 244 197 113 75 36 72 66
155 153 91 95 107 325 320 307 258 266 267 267 247 228 222 212 201 196 193 193 191 189 186 182 181 185 188 187 189 193 196 198 197 194 200 202 211 216 211 225 235 232 235 219 171 181 340 68 35
179 100 106 111 144 147 299 288 249 241 246 243 244 237 227 219 210 202 199 197 193 187 184 185 187 186 188 190 191 189 195 198 193 194 203 202 207 211 215 219 214 213 214 212 197 233 210 139 17
174 180 146 142 237 165 181 270 280 266 267 255 257 256 240 225 215 207 200 191 189 191 191 191 190 190 192 190 187 191 195 192 192 199 206 203 208 215 215 204 200 206 206 201 195 217 208 194 193
Height
1515 1516 1518 1520 1522 1526 1526 1520 1515 1513 1510 1509 1507 1507 1510 1514 1517 1524 1521 1520 1521 1522 1523 1523 1524 1524 1525 1525 1525 1526 1526 1526 1526 1526 1525 1525 1526 1526 1526 1526 1526 1526 1526 1526 1525 1525 1525 1525 1525
1515 1516 1519 1519 1523 1530 1526 1517 1514 1510 1509 1509 1509 1510 1512 1515 1517 1518 1519 1520 1522 1522 1523 1524 1524 1524 1524 1525 1525 1525 1525 1525 1525 1525 1525 1525 1525 1525 1525 1525 1525 1525 1525 1525 1525 1525 1525 1525 1525
1515 1516 1518 1519 1523 1526 1522 1513 1511 1508 1508 1508 1510 1512 1514 1517 1518 1518 1520 1521 1522 1523 1523 1524 1524 1524 1524 1524 1524 1524 1524 1524 1523 1523 1523 1523 1523 1523 1523 1523 1523 1523 1523 1523 1524 1524 1524 1524 1524
1515 1516 1517 1520 1522 1517 1513 1511 1509 1509 1508 1508 1510 1514 1516 1518 1518 1519 1520 1522 1523 1523 1524 1524 1524 1524 1524 1524 1523 1523 1523 1522 1522 1522 1521 1521 1521 1521 1521 1521 1521 1521 1521 1522 1522 1522 1522 1522 1522
1514 1515 1518 1522 1518 1513 1510 1508 1508 1508 1508 1510 1510 1515 1518 1520 1519 1520 1521 1522 1523 1523 1524 1524 1524 1524 1524 1523 1523 1522 1521 1521 1520 1520 1519 1519 1519 1519 1519 1519 1519 1519 1519 1519 1520 1520 1520 1521 1521
1513 1514 1521 1524 1517 1512 1509 1508 1508 1508 1509 1510 1511 1516 1520 1521 1520 1521 1522 1523 1523 1524 1524 1524 1524 1524 1523 1523 1522 1521 1521 1520 1519 1518 1518 1517 1517 1517 1516 1517 1517 1517 1517 1517 1517 1517 1518 1518 1519
1512 1515 1519 1518 1517 1514 1510 1508 1508 1508 1508 1510 1511 1516 1519 1521 1521 1522 1522 1523 1524 1524 1524 1524 1524 1523 1523 1522 1522 1521 1520 1519 1518 1518 1517 1516 1515 1515 1515 1514 1514 1514 1514 1514 1514 1515 1515 1516 1516
1510 1514 1517 1518 1517 1514 1509 1508 1507 1507 1508 1510 1510 1513 1517 1519 1520 1522 1522 1523 1524 1524 1524 1524 1524 1523 1523 1522 1522 1521 1520 1519 1518 1517 1516 1515 1514 1514 1513 1513 1512 1512 1512 1512 1512 1512 1512 1513 1514
1510 1517 1521 1518 1517 1513 1509 1508 1507 1507 1507 1509 1510 1511 1513 1517 1519 1521 1522 1523 1524 1524 1524 1524 1523 1523 1522 1522 1521 1521 1520 1519 1517 1516 1515 1514 1513 1513 1512 1511 1511 1510 1510 1510 1509 1510 1510 1510 1511
1510 1518 1516 1511 1511 1510 1508 1508 1507 1508 1509 1510 1511 1512 1514 1516 1518 1520 1521 1522 1523 1523 1523 1523 1523 1523 1522 1522 1521 1520 1519 1518 1517 1516 1515 1514 1513 1512 1511 1510 1510 1509 1509 1508 1507 1507 1507 1508 1508
1509 1512 1510 1509 1508 1508 1508 1507 1506 1507 1509 1509 1509 1511 1513 1516 1518 1519 1520 1521 1522 1522 1523 1523 1523 1523 1522 1521 1521 1520 1519 1518 1517 1516 1514 1513 1512 1511 1510 1509 1509 1508 1507 1506 1506 1506 1505 1506 1506
1509 1508 1507 1507 1507 1506 1506 1505 1505 1505 1505 1506 1507 1509 1512 1514 1516 1518 1519 1520 1521 1522 1522 1522 1522 1522 1522 1521 1520 1519 1518 1517 1516 1515 1514 1513 1512 1510 1509 1508 1507 1507 1506 1505 1505 1504 1504 1504 1504
1507 1506 1506 1505 1505 1505 1504 1504 1504 1503 1503 1505 1508 1509 1511 1513 1514 1516 1517 1519 1520 1520 1521 1521 1521 1521 1521 1520 1519 1518 1518 1517 1516 1515 1513 1512 1511 1509 1508 1507 1506 1505 1504 1503 1503 1503 1502 1502 1502
1506 1506 1506 1505 1504 1504 1504 1504 1505 1503 1503 1505 1507 1508 1510 1511 1513 1515 1516 1517 1519 1519 1520 1520 1520 1520 1520 1519 1518 1517 1517 1516 1515 1514 1513 1511 1510 1509 1507 1506 1505 1504 1503 1502 1501 1501 1500 1500 1500
1507 1508 1507 1505 1504 1504 1505 1507 1503 1501 1503 1504 1505 1506 1508 1509 1511 1512 1514 1515 1516 1517 1518 1518 1518 1518 1518 1518 1517 1516 1516 1515 1514 1513 1512 1511 1509 1508 1506 1505 1503 1502 1501 1500 1500 1499 1499 1498 1498
1509 1512 1516 1507 1503 1503 1508 1512 1501 1500 1501 1502 1503 1504 1506 1507 1509 1510 1512 1513 1514 1516 1516 1517 1517 1517 1517 1517 1516 1515 1515 1514 1514 1513 1511 1510 1508 1507 1505 1504 1502 1501 1500 1499 1498 1497 1497 1497 1496
1516 1521 1519 1510 1502 1502 1505 1507 1498 1498 1499 1500 1501 1502 1503 1505 1507 1508 1510 1511 1512 1514 1515 1515 1516 1516 1516 1515 1515 1515 1514 1514 1513 1512 1511 1509 1508 1506 1504 1503 1501 1500 1498 1497 1496 1496 1495 1495 1495
1522 1521 1518 1513 1503 1502 1504 1502 1496 1495 1496 1497 1498 1499 1500 1502 1504 1506 1508 1510 1511 1512 1513 1514 1514 1514 1514 1514 1514 1514 1513 1513 1512 1511 1510 1508 1507 1505 1503 1502 1501 1499 1498 1496 1495 1494 1494 1493 1493
1512 1515 1516 1509 1501 1503 1503 1500 1494 1492 1493 1494 1494 1496 1497 1499 1502 1504 1506 1508 1510 1511 1512 1512 1513 1513 1513 1513 1513 1513 1512 1512 1511 1510 1509 1508 1506 1505 1503 1501 1500 1498 1497 1496 1495 1494 1493 1493 1492
1510 1514 1513 1507 1499 1501 1502 1499 1491 1489 1489 1488 1490 1491 1493 1496 1500 1502 1504 1506 1507 1508 1509 1510 1511 1511 1512 1512 1512 1512 1511 1511 1510 1509 1509 1507 1506 1504 1503 1501 1500 1498 1497 1496 1495 1494 1493 1492 1492
1510 1512 1510 1508 1501 1498 1502 1503 1493 1486 1485 1486 1487 1487 1489 1492 1495 1498 1501 1503 1505 1506 1507 1508 1509 1510 1510 1510 1510 1510 1510 1510 1510 1509 1508 1507 1505 1504 1502 1501 1500 1498 1497 1495 1494 1493 1493 1492 1492
1513 1502 1503 1504 1510 1515 1508 1522 1501 1490 1486 1484 1484 1486 1487 1489 1492 1495 1497 1500 1502 1504 1506 1507 1508 1508 1509 1509 1509 1509 1509 1509 1508 1508 1507 1506 1505 1504 1503 1501 1500 1498 1497 1495 1494 1494 1493 1493 1492
1503 1497 1500 1503 1509 1516 1512 1519 1510 1493 1491 1486 1484 1484 1485 1487 1489 1492 1494 1497 1500 1502 1504 1505 1506 1507 1507 1508 1508 1508 1508 1508 1507 1507 1507 1506 1505 1504 1503 1501 1500 1498 1497 1496 1495 1494 1493 1493 1492
1496 1501 1505 1511 1518 1528 1515 1518 1514 1500 1490 1485 1483 1483 1484 1486 1488 1490 1492 1496 1498 1500 1502 1503 1504 1505 1506 1506 1506 1506 1506 1506 1506 1506 1506 1505 1504 1504 1502 1501 1500 1498 1497 1496 1495 1494 1493 1493 1493
1500 1516 1532 1534 1538 1532 1513 1514 1511 1491 1484 1482 1481 1482 1483 1485 1486 1488 1491 1493 1496 1497 1499 1500 1502 1503 1504 1504 1504 1505 1505 1505 1505 1505 1505 1504 1504 1503 1502 1501 1500 1498 1497 1496 1495 1494 1494 1493 1493
1502 1514 1533 1541 1540 1532 1516 1515 1503 1486 1482 1481 1481 1481 1482 1483 1485 1486 1488 1490 1492 1494 1496 1498 1499 1500 1501 1502 1503 1503 1504 1504 1504 1504 1504 1503 1503 1502 1502 1501 1500 1498 1497 1496 1495 1494 1494 1493 1493
1502 1510 1512 1526 1528 1533 1525 1510 1496 1486 1485 1484 1483 1482 1482 1483 1483 1484 1486 1488 1490 1491 1493 1494 1496 1498 1499 1500 1501 1501 1502 1502 1502 1503 1503 1502 1502 1502 1501 1500 1499 1498 1497 1496 1495 1494 1494 1493 1493
1495 1502 1516 1524 1535 1541 1531 1519 1512 1495 1489 1485 1483 1482 1481 1481 1482 1482 1483 1485 1487 1488 1490 1492 1494 1495 1496 1497 1498 1499 1500 1501 1501 1501 1501 1501 1501 1501 1500 1500 1499 1498 1497 1496 1496 1495 1494 1493 1493
1497 1501 1511 1525 1529 1539 1540 1528 1497 1492 1487 1485 1482 1480 1480 1479 1479 1479 1480 1482 1484 1486 1487 1489 1491 1492 1494 1495 1496 1497 1498 1499 1499 1500 1500 1500 1500 1500 1500 1499 1498 1498 1497 1496 1496 1495 1494 1494 1493
1493 1498 1508 1523 1526 1530 1536 1526 1488 1487 1484 1482 1480 1478 1477 1477 1477 1477 1478 1479 1481 1482 1484 1485 1487 1489 1490 1492 1493 1494 1496 1497 1497 1498 1498 1499 1499 1499 1498 1498 1498 1497 1497 1496 1495 1495 1494 1494 1493